owner,sensor,date,latitude,longitude,air_pressure(mBar),qcFlag 
WAVCIS,ioos:station:WAVCIS:CSI03:1,2010-08-01T00:00:00Z,29.4412,-92.0613,1008.14,11111222 
WAVCIS,ioos:station:WAVCIS:CSI03:1,2010-08-01T01:00:00Z,29.4412,-92.0613,1008.33,11111222 
WAVCIS,ioos:station:WAVCIS:CSI03:1,2010-08-01T02:00:00Z,29.4412,-92.0613,1008.68,11111222 
WAVCIS,ioos:station:WAVCIS:CSI03:1,2010-08-01T03:00:00Z,29.4412,-92.0613,1009.04,11111222 
WAVCIS,ioos:station:WAVCIS:CSI03:1,2010-08-01T04:00:00Z,29.4412,-92.0613,1009.39,11111222 
WAVCIS,ioos:station:WAVCIS:CSI03:1,2010-08-01T05:00:00Z,29.4412,-92.0613,1009.4,11111222 
WAVCIS,ioos:station:WAVCIS:CSI03:1,2010-08-01T06:00:00Z,29.4412,-92.0613,1009.22,11111222 
WAVCIS,ioos:station:WAVCIS:CSI03:1,2010-08-01T07:00:00Z,29.4412,-92.0613,1009.14,11111222 
WAVCIS,ioos:station:WAVCIS:CSI03:1,2010-08-01T08:00:00Z,29.4412,-92.0613,1008.96,11111222 
WAVCIS,ioos:station:WAVCIS:CSI03:1,2010-08-01T09:00:00Z,29.4412,-92.0613,1008.73,11111222 
WAVCIS,ioos:station:WAVCIS:CSI03:1,2010-08-01T10:00:00Z,29.4412,-92.0613,1008.85,11111222 
WAVCIS,ioos:station:WAVCIS:CSI03:1,2010-08-01T11:00:00Z,29.4412,-92.0613,1009.24,11111222 
WAVCIS,ioos:station:WAVCIS:CSI03:1,2010-08-01T12:00:00Z,29.4412,-92.0613,1009.77,11111222 
WAVCIS,ioos:station:WAVCIS:CSI03:1,2010-08-01T13:00:00Z,29.4412,-92.0613,1010.12,11111222 
WAVCIS,ioos:station:WAVCIS:CSI03:1,2010-08-01T14:00:00Z,29.4412,-92.0613,1010.49,11111222 
WAVCIS,ioos:station:WAVCIS:CSI03:1,2010-08-01T15:00:00Z,29.4412,-92.0613,1010.69,11111222 
WAVCIS,ioos:station:WAVCIS:CSI03:1,2010-08-01T16:00:00Z,29.4412,-92.0613,1010.68,11111222 
WAVCIS,ioos:station:WAVCIS:CSI03:1,2010-08-01T17:00:00Z,29.4412,-92.0613,1010.62,11111222 
WAVCIS,ioos:station:WAVCIS:CSI03:1,2010-08-01T18:00:00Z,29.4412,-92.0613,1010.46,11111222 
WAVCIS,ioos:station:WAVCIS:CSI03:1,2010-08-01T19:00:00Z,29.4412,-92.0613,1010.11,11111222 
WAVCIS,ioos:station:WAVCIS:CSI03:1,2010-08-01T20:00:00Z,29.4412,-92.0613,1009.81,11111222 
WAVCIS,ioos:station:WAVCIS:CSI03:1,2010-08-01T21:00:00Z,29.4412,-92.0613,1009.42,11111222 
WAVCIS,ioos:station:WAVCIS:CSI03:1,2010-08-01T22:00:00Z,29.4412,-92.0613,1009.21,11111222 
WAVCIS,ioos:station:WAVCIS:CSI03:1,2010-08-01T23:00:00Z,29.4412,-92.0613,1008.7,11111222 
WAVCIS,ioos:station:WAVCIS:CSI03:1,2010-08-02T00:00:00Z,29.4412,-92.0613,1008.3,11111222 
WAVCIS,ioos:station:WAVCIS:CSI03:1,2010-08-02T01:00:00Z,29.4412,-92.0613,1008.57,11111222 
WAVCIS,ioos:station:WAVCIS:CSI03:1,2010-08-02T02:00:00Z,29.4412,-92.0613,1009.33,11111222 
WAVCIS,ioos:station:WAVCIS:CSI03:1,2010-08-02T03:00:00Z,29.4412,-92.0613,1010.2,11111222 
WAVCIS,ioos:station:WAVCIS:CSI03:1,2010-08-02T04:00:00Z,29.4412,-92.0613,1010.65,11111222 
WAVCIS,ioos:station:WAVCIS:CSI03:1,2010-08-02T05:00:00Z,29.4412,-92.0613,1010.56,11111222 
WAVCIS,ioos:station:WAVCIS:CSI03:1,2010-08-02T06:00:00Z,29.4412,-92.0613,1010.55,11111222 
WAVCIS,ioos:station:WAVCIS:CSI03:1,2010-08-02T07:00:00Z,29.4412,-92.0613,1010.4,11111222 
WAVCIS,ioos:station:WAVCIS:CSI03:1,2010-08-02T08:00:00Z,29.4412,-92.0613,1010.43,11111222 
WAVCIS,ioos:station:WAVCIS:CSI03:1,2010-08-02T09:00:00Z,29.4412,-92.0613,1010.56,11111222 
WAVCIS,ioos:station:WAVCIS:CSI03:1,2010-08-02T10:00:00Z,29.4412,-92.0613,1011.08,11111222 
WAVCIS,ioos:station:WAVCIS:CSI03:1,2010-08-02T11:00:00Z,29.4412,-92.0613,1011.57,11111222 
WAVCIS,ioos:station:WAVCIS:CSI03:1,2010-08-02T12:00:00Z,29.4412,-92.0613,1012.01,11111222 
WAVCIS,ioos:station:WAVCIS:CSI03:1,2010-08-02T13:00:00Z,29.4412,-92.0613,1012.46,11111222 
WAVCIS,ioos:station:WAVCIS:CSI03:1,2010-08-02T14:00:00Z,29.4412,-92.0613,1012.85,11111222 
WAVCIS,ioos:station:WAVCIS:CSI03:1,2010-08-02T15:00:00Z,29.4412,-92.0613,1013.25,11111222 
WAVCIS,ioos:station:WAVCIS:CSI03:1,2010-08-02T16:00:00Z,29.4412,-92.0613,1013.47,11111222 
WAVCIS,ioos:station:WAVCIS:CSI03:1,2010-08-02T17:00:00Z,29.4412,-92.0613,1013.33,11111222 
WAVCIS,ioos:station:WAVCIS:CSI03:1,2010-08-02T18:00:00Z,29.4412,-92.0613,1013.19,11111222 
WAVCIS,ioos:station:WAVCIS:CSI03:1,2010-08-02T19:00:00Z,29.4412,-92.0613,1012.68,11111222 
WAVCIS,ioos:station:WAVCIS:CSI03:1,2010-08-02T20:00:00Z,29.4412,-92.0613,1012.38,11111222 
WAVCIS,ioos:station:WAVCIS:CSI03:1,2010-08-02T21:00:00Z,29.4412,-92.0613,1012.16,11111222 
WAVCIS,ioos:station:WAVCIS:CSI03:1,2010-08-02T22:00:00Z,29.4412,-92.0613,1012.0,11111222 
WAVCIS,ioos:station:WAVCIS:CSI03:1,2010-08-02T23:00:00Z,29.4412,-92.0613,1011.86,11111222 
WAVCIS,ioos:station:WAVCIS:CSI03:1,2010-08-03T00:00:00Z,29.4412,-92.0613,1011.79,11111222 
WAVCIS,ioos:station:WAVCIS:CSI03:1,2010-08-03T01:00:00Z,29.4412,-92.0613,1012.17,11111222 
WAVCIS,ioos:station:WAVCIS:CSI03:1,2010-08-03T02:00:00Z,29.4412,-92.0613,1012.87,11111222 
WAVCIS,ioos:station:WAVCIS:CSI03:1,2010-08-03T03:00:00Z,29.4412,-92.0613,1013.08,11111222 
WAVCIS,ioos:station:WAVCIS:CSI03:1,2010-08-03T04:00:00Z,29.4412,-92.0613,1013.52,11111222 
WAVCIS,ioos:station:WAVCIS:CSI03:1,2010-08-03T05:00:00Z,29.4412,-92.0613,1013.44,11111222 
WAVCIS,ioos:station:WAVCIS:CSI03:1,2010-08-03T06:00:00Z,29.4412,-92.0613,1013.57,11111222 
WAVCIS,ioos:station:WAVCIS:CSI03:1,2010-08-03T07:00:00Z,29.4412,-92.0613,1013.36,11111222 
WAVCIS,ioos:station:WAVCIS:CSI03:1,2010-08-03T08:00:00Z,29.4412,-92.0613,1013.43,11111222 
WAVCIS,ioos:station:WAVCIS:CSI03:1,2010-08-03T09:00:00Z,29.4412,-92.0613,1013.14,11111222 
WAVCIS,ioos:station:WAVCIS:CSI03:1,2010-08-03T10:00:00Z,29.4412,-92.0613,1013.5,11111222 
WAVCIS,ioos:station:WAVCIS:CSI03:1,2010-08-03T11:00:00Z,29.4412,-92.0613,1013.83,11111222 
WAVCIS,ioos:station:WAVCIS:CSI03:1,2010-08-03T12:00:00Z,29.4412,-92.0613,1014.16,11111222 
WAVCIS,ioos:station:WAVCIS:CSI03:1,2010-08-03T13:00:00Z,29.4412,-92.0613,1014.62,11111222 
WAVCIS,ioos:station:WAVCIS:CSI03:1,2010-08-03T14:00:00Z,29.4412,-92.0613,1014.89,11111222 
WAVCIS,ioos:station:WAVCIS:CSI03:1,2010-08-03T15:00:00Z,29.4412,-92.0613,1015.83,11111222 
WAVCIS,ioos:station:WAVCIS:CSI03:1,2010-08-03T16:00:00Z,29.4412,-92.0613,1016.32,11111222 
WAVCIS,ioos:station:WAVCIS:CSI03:1,2010-08-03T17:00:00Z,29.4412,-92.0613,1016.24,11111222 
WAVCIS,ioos:station:WAVCIS:CSI03:1,2010-08-03T18:00:00Z,29.4412,-92.0613,1015.68,11111222 
WAVCIS,ioos:station:WAVCIS:CSI03:1,2010-08-03T19:00:00Z,29.4412,-92.0613,1015.32,11111222 
WAVCIS,ioos:station:WAVCIS:CSI03:1,2010-08-03T20:00:00Z,29.4412,-92.0613,1014.59,11111222 
WAVCIS,ioos:station:WAVCIS:CSI03:1,2010-08-03T21:00:00Z,29.4412,-92.0613,1014.28,11111222 
WAVCIS,ioos:station:WAVCIS:CSI03:1,2010-08-03T22:00:00Z,29.4412,-92.0613,1013.58,11111222 
WAVCIS,ioos:station:WAVCIS:CSI03:1,2010-08-03T23:00:00Z,29.4412,-92.0613,1013.51,11111222 
WAVCIS,ioos:station:WAVCIS:CSI03:1,2010-08-04T00:00:00Z,29.4412,-92.0613,1013.08,11111222 
WAVCIS,ioos:station:WAVCIS:CSI03:1,2010-08-04T01:00:00Z,29.4412,-92.0613,1013.17,11111222 
WAVCIS,ioos:station:WAVCIS:CSI03:1,2010-08-04T02:00:00Z,29.4412,-92.0613,1013.78,11111222 
WAVCIS,ioos:station:WAVCIS:CSI03:1,2010-08-04T03:00:00Z,29.4412,-92.0613,1014.11,11111222 
WAVCIS,ioos:station:WAVCIS:CSI03:1,2010-08-04T04:00:00Z,29.4412,-92.0613,1013.92,11111222 
WAVCIS,ioos:station:WAVCIS:CSI03:1,2010-08-04T05:00:00Z,29.4412,-92.0613,1013.52,11111222 
WAVCIS,ioos:station:WAVCIS:CSI03:1,2010-08-04T06:00:00Z,29.4412,-92.0613,1013.13,11111222 
WAVCIS,ioos:station:WAVCIS:CSI03:1,2010-08-04T07:00:00Z,29.4412,-92.0613,1012.91,11111222 
WAVCIS,ioos:station:WAVCIS:CSI03:1,2010-08-04T08:00:00Z,29.4412,-92.0613,1012.99,11111222 
WAVCIS,ioos:station:WAVCIS:CSI03:1,2010-08-04T09:00:00Z,29.4412,-92.0613,1012.89,11111222 
WAVCIS,ioos:station:WAVCIS:CSI03:1,2010-08-04T10:00:00Z,29.4412,-92.0613,1012.95,11111222 
WAVCIS,ioos:station:WAVCIS:CSI03:1,2010-08-04T11:00:00Z,29.4412,-92.0613,1013.11,11111222 
WAVCIS,ioos:station:WAVCIS:CSI03:1,2010-08-04T12:00:00Z,29.4412,-92.0613,1013.38,11111222 
WAVCIS,ioos:station:WAVCIS:CSI03:1,2010-08-04T13:00:00Z,29.4412,-92.0613,1013.75,11111222 
WAVCIS,ioos:station:WAVCIS:CSI03:1,2010-08-04T14:00:00Z,29.4412,-92.0613,1014.57,11111222 
WAVCIS,ioos:station:WAVCIS:CSI03:1,2010-08-04T15:00:00Z,29.4412,-92.0613,1014.59,11111222 
WAVCIS,ioos:station:WAVCIS:CSI03:1,2010-08-04T16:00:00Z,29.4412,-92.0613,1014.85,11111222 
WAVCIS,ioos:station:WAVCIS:CSI03:1,2010-08-04T17:00:00Z,29.4412,-92.0613,1014.73,11111222 
WAVCIS,ioos:station:WAVCIS:CSI03:1,2010-08-04T18:00:00Z,29.4412,-92.0613,1014.06,11111222 
WAVCIS,ioos:station:WAVCIS:CSI03:1,2010-08-04T19:00:00Z,29.4412,-92.0613,1013.18,11111222 
WAVCIS,ioos:station:WAVCIS:CSI03:1,2010-08-04T20:00:00Z,29.4412,-92.0613,1012.51,11111222 
WAVCIS,ioos:station:WAVCIS:CSI03:1,2010-08-04T21:00:00Z,29.4412,-92.0613,1011.89,11111222 
WAVCIS,ioos:station:WAVCIS:CSI03:1,2010-08-04T22:00:00Z,29.4412,-92.0613,1011.24,11111222 
WAVCIS,ioos:station:WAVCIS:CSI03:1,2010-08-04T23:00:00Z,29.4412,-92.0613,1010.71,11111222 
WAVCIS,ioos:station:WAVCIS:CSI03:1,2010-08-05T00:00:00Z,29.4412,-92.0613,1010.84,11111222 
WAVCIS,ioos:station:WAVCIS:CSI03:1,2010-08-05T01:00:00Z,29.4412,-92.0613,1011.17,11111222 
WAVCIS,ioos:station:WAVCIS:CSI03:1,2010-08-05T02:00:00Z,29.4412,-92.0613,1011.22,11111222 
WAVCIS,ioos:station:WAVCIS:CSI03:1,2010-08-05T03:00:00Z,29.4412,-92.0613,1011.07,11111222 
WAVCIS,ioos:station:WAVCIS:CSI03:1,2010-08-05T04:00:00Z,29.4412,-92.0613,1011.66,11111222 
WAVCIS,ioos:station:WAVCIS:CSI03:1,2010-08-05T05:00:00Z,29.4412,-92.0613,1011.81,11111222 
WAVCIS,ioos:station:WAVCIS:CSI03:1,2010-08-05T06:00:00Z,29.4412,-92.0613,1011.42,11111222 
WAVCIS,ioos:station:WAVCIS:CSI03:1,2010-08-05T07:00:00Z,29.4412,-92.0613,1010.95,11111222 
WAVCIS,ioos:station:WAVCIS:CSI03:1,2010-08-05T08:00:00Z,29.4412,-92.0613,1010.37,11111222 
WAVCIS,ioos:station:WAVCIS:CSI03:1,2010-08-05T09:00:00Z,29.4412,-92.0613,1010.06,11111222 
WAVCIS,ioos:station:WAVCIS:CSI03:1,2010-08-05T10:00:00Z,29.4412,-92.0613,1010.24,11111222 
WAVCIS,ioos:station:WAVCIS:CSI03:1,2010-08-05T11:00:00Z,29.4412,-92.0613,1010.92,11111222 
WAVCIS,ioos:station:WAVCIS:CSI03:1,2010-08-05T12:00:00Z,29.4412,-92.0613,1011.06,11111222 
WAVCIS,ioos:station:WAVCIS:CSI03:1,2010-08-05T13:00:00Z,29.4412,-92.0613,1011.16,11111222 
WAVCIS,ioos:station:WAVCIS:CSI03:1,2010-08-05T14:00:00Z,29.4412,-92.0613,1011.81,11111222 
WAVCIS,ioos:station:WAVCIS:CSI03:1,2010-08-05T15:00:00Z,29.4412,-92.0613,1011.87,11111222 
WAVCIS,ioos:station:WAVCIS:CSI03:1,2010-08-05T16:00:00Z,29.4412,-92.0613,1012.54,11111222 
WAVCIS,ioos:station:WAVCIS:CSI03:1,2010-08-05T17:00:00Z,29.4412,-92.0613,1012.94,11111222 
WAVCIS,ioos:station:WAVCIS:CSI03:1,2010-08-05T18:00:00Z,29.4412,-92.0613,1012.42,11111222 
WAVCIS,ioos:station:WAVCIS:CSI03:1,2010-08-05T19:00:00Z,29.4412,-92.0613,1011.77,11111222 
WAVCIS,ioos:station:WAVCIS:CSI03:1,2010-08-05T20:00:00Z,29.4412,-92.0613,1011.3,11111222 
WAVCIS,ioos:station:WAVCIS:CSI03:1,2010-08-05T21:00:00Z,29.4412,-92.0613,1009.68,11111222 
WAVCIS,ioos:station:WAVCIS:CSI03:1,2010-08-05T22:00:00Z,29.4412,-92.0613,1009.69,11111222 
WAVCIS,ioos:station:WAVCIS:CSI03:1,2010-08-05T23:00:00Z,29.4412,-92.0613,1010.09,11111222 
WAVCIS,ioos:station:WAVCIS:CSI03:1,2010-08-06T00:00:00Z,29.4412,-92.0613,1009.91,11111222 
WAVCIS,ioos:station:WAVCIS:CSI03:1,2010-08-06T01:00:00Z,29.4412,-92.0613,1009.3,11111222 
WAVCIS,ioos:station:WAVCIS:CSI03:1,2010-08-06T02:00:00Z,29.4412,-92.0613,1009.23,11111222 
WAVCIS,ioos:station:WAVCIS:CSI03:1,2010-08-06T03:00:00Z,29.4412,-92.0613,1010.06,11111222 
WAVCIS,ioos:station:WAVCIS:CSI03:1,2010-08-06T04:00:00Z,29.4412,-92.0613,1010.84,11111222 
WAVCIS,ioos:station:WAVCIS:CSI03:1,2010-08-06T05:00:00Z,29.4412,-92.0613,1010.79,11111222 
WAVCIS,ioos:station:WAVCIS:CSI03:1,2010-08-06T06:00:00Z,29.4412,-92.0613,1010.78,11111222 
WAVCIS,ioos:station:WAVCIS:CSI03:1,2010-08-06T07:00:00Z,29.4412,-92.0613,1009.92,11111222 
WAVCIS,ioos:station:WAVCIS:CSI03:1,2010-08-06T08:00:00Z,29.4412,-92.0613,1009.75,11111222 
WAVCIS,ioos:station:WAVCIS:CSI03:1,2010-08-06T09:00:00Z,29.4412,-92.0613,1009.59,11111222 
WAVCIS,ioos:station:WAVCIS:CSI03:1,2010-08-06T10:00:00Z,29.4412,-92.0613,1009.92,11111222 
WAVCIS,ioos:station:WAVCIS:CSI03:1,2010-08-06T11:00:00Z,29.4412,-92.0613,1010.48,11111222 
WAVCIS,ioos:station:WAVCIS:CSI03:1,2010-08-06T12:00:00Z,29.4412,-92.0613,1010.7,11111222 
WAVCIS,ioos:station:WAVCIS:CSI03:1,2010-08-06T13:00:00Z,29.4412,-92.0613,1011.11,11111222 
WAVCIS,ioos:station:WAVCIS:CSI03:1,2010-08-06T14:00:00Z,29.4412,-92.0613,1011.6,11111222 
WAVCIS,ioos:station:WAVCIS:CSI03:1,2010-08-06T15:00:00Z,29.4412,-92.0613,1012.28,11111222 
WAVCIS,ioos:station:WAVCIS:CSI03:1,2010-08-06T16:00:00Z,29.4412,-92.0613,1012.41,11111222 
WAVCIS,ioos:station:WAVCIS:CSI03:1,2010-08-06T17:00:00Z,29.4412,-92.0613,1012.25,11111222 
WAVCIS,ioos:station:WAVCIS:CSI03:1,2010-08-06T18:00:00Z,29.4412,-92.0613,1011.58,11111222 
WAVCIS,ioos:station:WAVCIS:CSI03:1,2010-08-06T19:00:00Z,29.4412,-92.0613,1011.42,11111222 
WAVCIS,ioos:station:WAVCIS:CSI03:1,2010-08-06T20:00:00Z,29.4412,-92.0613,1010.65,11111222 
WAVCIS,ioos:station:WAVCIS:CSI03:1,2010-08-06T21:00:00Z,29.4412,-92.0613,1010.07,11111222 
WAVCIS,ioos:station:WAVCIS:CSI03:1,2010-08-06T22:00:00Z,29.4412,-92.0613,1009.96,11111222 
WAVCIS,ioos:station:WAVCIS:CSI03:1,2010-08-06T23:00:00Z,29.4412,-92.0613,1009.76,11111222 
WAVCIS,ioos:station:WAVCIS:CSI03:1,2010-08-07T00:00:00Z,29.4412,-92.0613,1009.46,11111222 
WAVCIS,ioos:station:WAVCIS:CSI03:1,2010-08-07T01:00:00Z,29.4412,-92.0613,1009.78,11111222 
WAVCIS,ioos:station:WAVCIS:CSI03:1,2010-08-07T02:00:00Z,29.4412,-92.0613,1010.16,11111222 
WAVCIS,ioos:station:WAVCIS:CSI03:1,2010-08-07T03:00:00Z,29.4412,-92.0613,1010.63,11111222 
WAVCIS,ioos:station:WAVCIS:CSI03:1,2010-08-07T04:00:00Z,29.4412,-92.0613,1010.6,11111222 
WAVCIS,ioos:station:WAVCIS:CSI03:1,2010-08-07T05:00:00Z,29.4412,-92.0613,1010.63,11111222 
WAVCIS,ioos:station:WAVCIS:CSI03:1,2010-08-07T06:00:00Z,29.4412,-92.0613,1010.55,11111222 
WAVCIS,ioos:station:WAVCIS:CSI03:1,2010-08-07T07:00:00Z,29.4412,-92.0613,1010.35,11111222 
WAVCIS,ioos:station:WAVCIS:CSI03:1,2010-08-07T08:00:00Z,29.4412,-92.0613,1009.88,11111222 
WAVCIS,ioos:station:WAVCIS:CSI03:1,2010-08-07T09:00:00Z,29.4412,-92.0613,1009.53,11111222 
WAVCIS,ioos:station:WAVCIS:CSI03:1,2010-08-07T10:00:00Z,29.4412,-92.0613,1009.88,11111222 
WAVCIS,ioos:station:WAVCIS:CSI03:1,2010-08-07T11:00:00Z,29.4412,-92.0613,1010.11,11111222 
WAVCIS,ioos:station:WAVCIS:CSI03:1,2010-08-07T12:00:00Z,29.4412,-92.0613,1010.74,11111222 
WAVCIS,ioos:station:WAVCIS:CSI03:1,2010-08-07T13:00:00Z,29.4412,-92.0613,1011.22,11111222 
WAVCIS,ioos:station:WAVCIS:CSI03:1,2010-08-07T14:00:00Z,29.4412,-92.0613,1011.52,11111222 
WAVCIS,ioos:station:WAVCIS:CSI03:1,2010-08-07T15:00:00Z,29.4412,-92.0613,1011.57,11111222 
WAVCIS,ioos:station:WAVCIS:CSI03:1,2010-08-07T16:00:00Z,29.4412,-92.0613,1011.65,11111222 
WAVCIS,ioos:station:WAVCIS:CSI03:1,2010-08-07T17:00:00Z,29.4412,-92.0613,1011.77,11111222 
WAVCIS,ioos:station:WAVCIS:CSI03:1,2010-08-07T18:00:00Z,29.4412,-92.0613,1011.48,11111222 
WAVCIS,ioos:station:WAVCIS:CSI03:1,2010-08-07T19:00:00Z,29.4412,-92.0613,1011.0,11111222 
WAVCIS,ioos:station:WAVCIS:CSI03:1,2010-08-07T20:00:00Z,29.4412,-92.0613,1010.71,11111222 
WAVCIS,ioos:station:WAVCIS:CSI03:1,2010-08-07T21:00:00Z,29.4412,-92.0613,1009.81,11111222 
WAVCIS,ioos:station:WAVCIS:CSI03:1,2010-08-07T22:00:00Z,29.4412,-92.0613,1009.45,11111222 
WAVCIS,ioos:station:WAVCIS:CSI03:1,2010-08-07T23:00:00Z,29.4412,-92.0613,1009.37,11111222 
WAVCIS,ioos:station:WAVCIS:CSI03:1,2010-08-08T00:00:00Z,29.4412,-92.0613,1009.25,11111222 
WAVCIS,ioos:station:WAVCIS:CSI03:1,2010-08-08T01:00:00Z,29.4412,-92.0613,1009.76,11111222 
WAVCIS,ioos:station:WAVCIS:CSI03:1,2010-08-08T02:00:00Z,29.4412,-92.0613,1010.11,11111222 
WAVCIS,ioos:station:WAVCIS:CSI03:1,2010-08-08T03:00:00Z,29.4412,-92.0613,1010.71,11111222 
WAVCIS,ioos:station:WAVCIS:CSI03:1,2010-08-08T04:00:00Z,29.4412,-92.0613,1011.11,11111222 
WAVCIS,ioos:station:WAVCIS:CSI03:1,2010-08-08T05:00:00Z,29.4412,-92.0613,1011.33,11111222 
WAVCIS,ioos:station:WAVCIS:CSI03:1,2010-08-08T06:00:00Z,29.4412,-92.0613,1011.07,11111222 
WAVCIS,ioos:station:WAVCIS:CSI03:1,2010-08-08T07:00:00Z,29.4412,-92.0613,1010.55,11111222 
WAVCIS,ioos:station:WAVCIS:CSI03:1,2010-08-08T08:00:00Z,29.4412,-92.0613,1010.45,11111222 
WAVCIS,ioos:station:WAVCIS:CSI03:1,2010-08-08T09:00:00Z,29.4412,-92.0613,1010.5,11111222 
WAVCIS,ioos:station:WAVCIS:CSI03:1,2010-08-08T10:00:00Z,29.4412,-92.0613,1010.51,11111222 
WAVCIS,ioos:station:WAVCIS:CSI03:1,2010-08-08T11:00:00Z,29.4412,-92.0613,1010.64,11111222 
WAVCIS,ioos:station:WAVCIS:CSI03:1,2010-08-08T12:00:00Z,29.4412,-92.0613,1011.16,11111222 
WAVCIS,ioos:station:WAVCIS:CSI03:1,2010-08-08T13:00:00Z,29.4412,-92.0613,1011.49,11111222 
WAVCIS,ioos:station:WAVCIS:CSI03:1,2010-08-08T14:00:00Z,29.4412,-92.0613,1011.86,11111222 
WAVCIS,ioos:station:WAVCIS:CSI03:1,2010-08-08T15:00:00Z,29.4412,-92.0613,1012.48,11111222 
WAVCIS,ioos:station:WAVCIS:CSI03:1,2010-08-08T16:00:00Z,29.4412,-92.0613,1012.69,11111222 
WAVCIS,ioos:station:WAVCIS:CSI03:1,2010-08-08T17:00:00Z,29.4412,-92.0613,1012.55,11111222 
WAVCIS,ioos:station:WAVCIS:CSI03:1,2010-08-08T18:00:00Z,29.4412,-92.0613,1012.19,11111222 
WAVCIS,ioos:station:WAVCIS:CSI03:1,2010-08-08T19:00:00Z,29.4412,-92.0613,1011.67,11111222 
WAVCIS,ioos:station:WAVCIS:CSI03:1,2010-08-08T20:00:00Z,29.4412,-92.0613,1011.25,11111222 
WAVCIS,ioos:station:WAVCIS:CSI03:1,2010-08-08T21:00:00Z,29.4412,-92.0613,1010.7,11111222 
WAVCIS,ioos:station:WAVCIS:CSI03:1,2010-08-08T22:00:00Z,29.4412,-92.0613,1010.24,11111222 
WAVCIS,ioos:station:WAVCIS:CSI03:1,2010-08-08T23:00:00Z,29.4412,-92.0613,1010.06,11111222 
WAVCIS,ioos:station:WAVCIS:CSI03:1,2010-08-09T00:00:00Z,29.4412,-92.0613,1010.07,11111222 
WAVCIS,ioos:station:WAVCIS:CSI03:1,2010-08-09T01:00:00Z,29.4412,-92.0613,1010.49,11111222 
WAVCIS,ioos:station:WAVCIS:CSI03:1,2010-08-09T02:00:00Z,29.4412,-92.0613,1010.67,11111222 
WAVCIS,ioos:station:WAVCIS:CSI03:1,2010-08-09T03:00:00Z,29.4412,-92.0613,1011.11,11111222 
WAVCIS,ioos:station:WAVCIS:CSI03:1,2010-08-09T04:00:00Z,29.4412,-92.0613,1011.0,11111222 
WAVCIS,ioos:station:WAVCIS:CSI03:1,2010-08-09T05:00:00Z,29.4412,-92.0613,1011.15,11111222 
WAVCIS,ioos:station:WAVCIS:CSI03:1,2010-08-09T06:00:00Z,29.4412,-92.0613,1011.15,11111222 
WAVCIS,ioos:station:WAVCIS:CSI03:1,2010-08-09T07:00:00Z,29.4412,-92.0613,1011.09,11111222 
WAVCIS,ioos:station:WAVCIS:CSI03:1,2010-08-09T08:00:00Z,29.4412,-92.0613,1010.82,11111222 
WAVCIS,ioos:station:WAVCIS:CSI03:1,2010-08-09T09:00:00Z,29.4412,-92.0613,1010.8,11111222 
WAVCIS,ioos:station:WAVCIS:CSI03:1,2010-08-09T10:00:00Z,29.4412,-92.0613,1010.61,11111222 
WAVCIS,ioos:station:WAVCIS:CSI03:1,2010-08-09T11:00:00Z,29.4412,-92.0613,1011.09,11111222 
WAVCIS,ioos:station:WAVCIS:CSI03:1,2010-08-09T12:00:00Z,29.4412,-92.0613,1011.6,11111222 
WAVCIS,ioos:station:WAVCIS:CSI03:1,2010-08-09T13:00:00Z,29.4412,-92.0613,1012.3,11111222 
WAVCIS,ioos:station:WAVCIS:CSI03:1,2010-08-09T14:00:00Z,29.4412,-92.0613,1012.71,11111222 
WAVCIS,ioos:station:WAVCIS:CSI03:1,2010-08-09T15:00:00Z,29.4412,-92.0613,1012.91,11111222 
WAVCIS,ioos:station:WAVCIS:CSI03:1,2010-08-09T16:00:00Z,29.4412,-92.0613,1013.0,11111222 
WAVCIS,ioos:station:WAVCIS:CSI03:1,2010-08-09T17:00:00Z,29.4412,-92.0613,1013.05,11111222 
WAVCIS,ioos:station:WAVCIS:CSI03:1,2010-08-09T18:00:00Z,29.4412,-92.0613,1012.9,11111222 
WAVCIS,ioos:station:WAVCIS:CSI03:1,2010-08-09T19:00:00Z,29.4412,-92.0613,1012.72,11111222 
WAVCIS,ioos:station:WAVCIS:CSI03:1,2010-08-09T20:00:00Z,29.4412,-92.0613,1012.04,11111222 
WAVCIS,ioos:station:WAVCIS:CSI03:1,2010-08-09T21:00:00Z,29.4412,-92.0613,1011.1,11111222 
WAVCIS,ioos:station:WAVCIS:CSI03:1,2010-08-09T22:00:00Z,29.4412,-92.0613,1011.58,11111222 
WAVCIS,ioos:station:WAVCIS:CSI03:1,2010-08-09T23:00:00Z,29.4412,-92.0613,1011.71,11111222 
WAVCIS,ioos:station:WAVCIS:CSI03:1,2010-08-10T00:00:00Z,29.4412,-92.0613,1009.88,11111222 
WAVCIS,ioos:station:WAVCIS:CSI03:1,2010-08-10T01:00:00Z,29.4412,-92.0613,1009.48,11111222 
WAVCIS,ioos:station:WAVCIS:CSI03:1,2010-08-10T02:00:00Z,29.4412,-92.0613,1010.81,11111222 
WAVCIS,ioos:station:WAVCIS:CSI03:1,2010-08-10T03:00:00Z,29.4412,-92.0613,1010.91,11111222 
WAVCIS,ioos:station:WAVCIS:CSI03:1,2010-08-10T04:00:00Z,29.4412,-92.0613,1011.8,11111222 
WAVCIS,ioos:station:WAVCIS:CSI03:1,2010-08-10T05:00:00Z,29.4412,-92.0613,1011.63,11111222 
WAVCIS,ioos:station:WAVCIS:CSI03:1,2010-08-10T06:00:00Z,29.4412,-92.0613,1011.1,11111222 
WAVCIS,ioos:station:WAVCIS:CSI03:1,2010-08-10T07:00:00Z,29.4412,-92.0613,1010.73,11111222 
WAVCIS,ioos:station:WAVCIS:CSI03:1,2010-08-10T08:00:00Z,29.4412,-92.0613,1010.46,11111222 
WAVCIS,ioos:station:WAVCIS:CSI03:1,2010-08-10T09:00:00Z,29.4412,-92.0613,1010.44,11111222 
WAVCIS,ioos:station:WAVCIS:CSI03:1,2010-08-10T10:00:00Z,29.4412,-92.0613,1010.62,11111222 
WAVCIS,ioos:station:WAVCIS:CSI03:1,2010-08-10T11:00:00Z,29.4412,-92.0613,1010.8,11111222 
WAVCIS,ioos:station:WAVCIS:CSI03:1,2010-08-10T12:00:00Z,29.4412,-92.0613,1011.17,11111222 
WAVCIS,ioos:station:WAVCIS:CSI03:1,2010-08-10T13:00:00Z,29.4412,-92.0613,1011.4,11111222 
WAVCIS,ioos:station:WAVCIS:CSI03:1,2010-08-10T14:00:00Z,29.4412,-92.0613,1011.56,11111222 
WAVCIS,ioos:station:WAVCIS:CSI03:1,2010-08-10T15:00:00Z,29.4412,-92.0613,1012.5,11111222 
WAVCIS,ioos:station:WAVCIS:CSI03:1,2010-08-10T16:00:00Z,29.4412,-92.0613,1012.86,11111222 
WAVCIS,ioos:station:WAVCIS:CSI03:1,2010-08-10T17:00:00Z,29.4412,-92.0613,1012.74,11111222 
WAVCIS,ioos:station:WAVCIS:CSI03:1,2010-08-10T18:00:00Z,29.4412,-92.0613,1012.22,11111222 
WAVCIS,ioos:station:WAVCIS:CSI03:1,2010-08-10T19:00:00Z,29.4412,-92.0613,1011.46,11111222 
WAVCIS,ioos:station:WAVCIS:CSI03:1,2010-08-10T20:00:00Z,29.4412,-92.0613,1010.39,11111222 
WAVCIS,ioos:station:WAVCIS:CSI03:1,2010-08-10T21:00:00Z,29.4412,-92.0613,1009.92,11111222 
WAVCIS,ioos:station:WAVCIS:CSI03:1,2010-08-10T22:00:00Z,29.4412,-92.0613,1009.54,11111222 
WAVCIS,ioos:station:WAVCIS:CSI03:1,2010-08-10T23:00:00Z,29.4412,-92.0613,1009.42,11111222 
WAVCIS,ioos:station:WAVCIS:CSI03:1,2010-08-11T00:00:00Z,29.4412,-92.0613,1009.25,11111222 
WAVCIS,ioos:station:WAVCIS:CSI03:1,2010-08-11T01:00:00Z,29.4412,-92.0613,1009.53,11111222 
WAVCIS,ioos:station:WAVCIS:CSI03:1,2010-08-11T02:00:00Z,29.4412,-92.0613,1010.23,11111222 
WAVCIS,ioos:station:WAVCIS:CSI03:1,2010-08-11T03:00:00Z,29.4412,-92.0613,1010.42,11111222 
WAVCIS,ioos:station:WAVCIS:CSI03:1,2010-08-11T04:00:00Z,29.4412,-92.0613,1010.5,11111222 
WAVCIS,ioos:station:WAVCIS:CSI03:1,2010-08-11T05:00:00Z,29.4412,-92.0613,1010.06,11111222 
WAVCIS,ioos:station:WAVCIS:CSI03:1,2010-08-11T06:00:00Z,29.4412,-92.0613,1009.77,11111222 
WAVCIS,ioos:station:WAVCIS:CSI03:1,2010-08-11T07:00:00Z,29.4412,-92.0613,1009.18,11111222 
WAVCIS,ioos:station:WAVCIS:CSI03:1,2010-08-11T08:00:00Z,29.4412,-92.0613,1009.09,11111222 
WAVCIS,ioos:station:WAVCIS:CSI03:1,2010-08-11T09:00:00Z,29.4412,-92.0613,1009.13,11111222 
WAVCIS,ioos:station:WAVCIS:CSI03:1,2010-08-11T10:00:00Z,29.4412,-92.0613,1008.73,11111222 
WAVCIS,ioos:station:WAVCIS:CSI03:1,2010-08-11T11:00:00Z,29.4412,-92.0613,1009.27,11111222 
WAVCIS,ioos:station:WAVCIS:CSI03:1,2010-08-11T12:00:00Z,29.4412,-92.0613,1009.55,11111222 
WAVCIS,ioos:station:WAVCIS:CSI03:1,2010-08-11T13:00:00Z,29.4412,-92.0613,1010.15,11111222 
WAVCIS,ioos:station:WAVCIS:CSI03:1,2010-08-11T14:00:00Z,29.4412,-92.0613,1009.86,11111222 
WAVCIS,ioos:station:WAVCIS:CSI03:1,2010-08-11T15:00:00Z,29.4412,-92.0613,1010.4,11111222 
WAVCIS,ioos:station:WAVCIS:CSI03:1,2010-08-11T16:00:00Z,29.4412,-92.0613,1010.15,11111222 
WAVCIS,ioos:station:WAVCIS:CSI03:1,2010-08-11T17:00:00Z,29.4412,-92.0613,1010.06,11111222 
WAVCIS,ioos:station:WAVCIS:CSI03:1,2010-08-11T18:00:00Z,29.4412,-92.0613,1009.87,11111222 
WAVCIS,ioos:station:WAVCIS:CSI03:1,2010-08-11T19:00:00Z,29.4412,-92.0613,1009.51,11111222 
WAVCIS,ioos:station:WAVCIS:CSI03:1,2010-08-11T20:00:00Z,29.4412,-92.0613,1008.55,11111222 
WAVCIS,ioos:station:WAVCIS:CSI03:1,2010-08-11T21:00:00Z,29.4412,-92.0613,1008.42,11111222 
WAVCIS,ioos:station:WAVCIS:CSI03:1,2010-08-11T22:00:00Z,29.4412,-92.0613,1007.99,11111222 